Weather reports worldwide

Advertisment
San Clemente, Spain (8256): temperature & dewpoint: 30.06.2020 19:00:00 - 06.07.2020 19:00:00 (CEST)San Clemente, Spain (8256): wind speed & gusts: 30.06.2020 19:00:00 - 06.07.2020 19:00:00 (CEST)San Clemente, Spain (8256): wind direction: 30.06.2020 19:00:00 - 06.07.2020 19:00:00 (CEST)San Clemente, Spain (8256): reduced air pressure: 30.06.2020 19:00:00 - 06.07.2020 19:00:00 (CEST)San Clemente, Spain (8256): visibility: 30.06.2020 19:00:00 - 06.07.2020 19:00:00 (CEST)San Clemente, Spain (8256): sunshine duration: 30.06.2020 19:00:00 - 06.07.2020 19:00:00 (CEST)San Clemente, Spain (8256): precipitation: 30.06.2020 19:00:00 - 06.07.2020 19:00:00 (CEST)
Date & Time tt [°C] td [°C] ff [km/h] ff [kn] fx [km/h] fx [kn] dd ppp [hPa] vv [km] sd [min] rr [mm]
06.07.2020 19:00:00 - - - - - - - - - - -
06.07.2020 18:00:00 36,8 5,0 14 7 38 20 N 1009,6 20 59 0,0
06.07.2020 17:00:00 36,7 6,8 18 10 35 19 N 1009,8 20 59 0,0
06.07.2020 16:00:00 36,9 5,9 11 6 30 16 NNW 1010,2 20 60 0,0
06.07.2020 15:00:00 35,8 7,0 9 5 29 16 SSW 1010,9 20 60 0,0
06.07.2020 14:00:00 35,7 8,5 8 5 21 11 W 1011,5 20 60 -
06.07.2020 13:00:00 33,3 8,7 4 2 16 8 SSE 1012,7 18 60 0,0
06.07.2020 12:00:00 31,8 9,3 5 3 12 6 WSW 1013,4 20 60 0,0
06.07.2020 11:00:00 29,6 9,7 4 2 11 6 WSW 1014,1 20 60 0,0
06.07.2020 10:00:00 26,9 11,0 5 3 12 6 S 1015,0 19 60 0,0
06.07.2020 09:00:00 24,0 11,3 8 4 16 9 S 1015,7 20 60 0,0
06.07.2020 08:00:00 20,5 9,7 8 5 11 6 SSE 1016,5 19 60 -
06.07.2020 07:00:00 18,0 8,3 6 3 16 9 E 1017,4 19 1 0,0
06.07.2020 06:00:00 17,7 8,5 6 3 19 10 SSE 1017,2 20 0 0,0
06.07.2020 05:00:00 19,5 8,8 8 4 15 8 SSE 1016,6 20 0 0,0
06.07.2020 04:00:00 19,7 8,4 8 4 16 9 SE 1017,1 20 0 0,0
06.07.2020 03:00:00 20,3 8,3 9 5 18 10 SSE 1017,2 20 0 0,0
06.07.2020 02:00:00 22,3 8,8 11 6 25 14 SSE 1016,8 20 0 -
06.07.2020 01:00:00 24,4 13,6 14 8 27 15 SSW 1015,6 20 0 0,0
06.07.2020 00:00:00 25,5 13,4 13 7 24 13 S 1015,2 20 0 0,0
05.07.2020 23:00:00 25,7 5,3 8 5 14 7 ESE 1014,9 20 0 0,0
05.07.2020 22:00:00 29,3 5,3 9 5 17 9 E 1013,4 20 8 0,0
05.07.2020 21:00:00 33,1 5,6 12 6 21 11 NNE 1012,2 20 60 0,0
05.07.2020 20:00:00 35,2 4,6 12 7 26 14 N 1011,7 20 60 -
05.07.2020 19:00:00 36,1 4,3 9 5 27 14 NW 1011,5 20 60 0,0
05.07.2020 18:00:00 35,5 3,9 5 3 34 19 SSE 1012,0 13 60 0,0
05.07.2020 17:00:00 35,5 3,9 12 7 23 13 N 1012,7 20 60 0,0
05.07.2020 16:00:00 35,2 5,6 9 5 29 16 ESE 1013,2 20 60 0,0
05.07.2020 15:00:00 34,5 5,9 6 4 16 9 W 1014,1 20 60 0,0
05.07.2020 14:00:00 33,1 7,8 6 4 19 10 S 1015,2 19 60 -
05.07.2020 13:00:00 31,0 12,8 8 4 21 11 WSW 1016,4 20 60 0,0
05.07.2020 12:00:00 29,1 15,3 12 7 23 13 SW 1017,1 20 60 0,0
05.07.2020 11:00:00 26,4 16,0 13 7 26 14 SSW 1017,9 4,1 60 0,0
05.07.2020 10:00:00 24,4 16,9 13 7 24 13 SSW 1018,9 20 60 0,0
05.07.2020 09:00:00 22,0 16,7 13 7 27 15 SSW 1019,7 17 60 0,0
05.07.2020 08:00:00 20,4 16,6 10 6 18 10 S 1019,9 20 60 -
05.07.2020 07:00:00 18,4 16,4 8 4 14 8 S 1020,3 16 0 0,0
05.07.2020 06:00:00 18,6 16,4 11 6 16 9 S 1020,1 16 0 0,0
05.07.2020 05:00:00 19,2 16,4 10 5 19 10 S 1020,0 19 0 0,0
05.07.2020 04:00:00 19,9 16,6 13 7 23 12 S 1019,9 19 0 0,0
05.07.2020 03:00:00 20,4 16,8 14 7 26 14 S 1020,1 20 0 0,0
05.07.2020 02:00:00 21,1 16,9 16 8 31 17 S 1020,0 19 0 -
05.07.2020 01:00:00 21,7 17,5 14 8 31 17 S 1019,4 20 0 0,0
05.07.2020 00:00:00 23,4 17,4 20 11 38 20 S 1018,7 20 0 0,0
04.07.2020 23:00:00 24,7 11,7 11 6 21 11 S 1018,0 12 0 0,0
04.07.2020 22:00:00 26,8 4,5 9 5 13 7 E 1016,4 18 14 0,0
04.07.2020 21:00:00 32,5 5,9 8 4 17 9 E 1014,3 4,6 60 0,0
04.07.2020 20:00:00 34,1 3,8 11 6 23 12 N 1013,8 20 60 -
04.07.2020 19:00:00 34,7 4,3 11 6 27 15 N 1013,4 20 60 0,0
04.07.2020 18:00:00 35,1 4,6 12 6 24 13 N 1013,8 20 60 0,0
04.07.2020 17:00:00 34,4 5,8 11 6 25 14 NNW 1014,2 20 60 0,0
04.07.2020 16:00:00 33,8 5,3 8 4 23 12 NNE 1014,8 20 60 0,0
04.07.2020 15:00:00 33,1 6,4 10 5 24 13 E 1015,6 19 60 0,0
04.07.2020 14:00:00 32,1 8,4 8 4 23 12 NW 1016,6 20 60 -
04.07.2020 13:00:00 30,6 11,0 7 4 20 11 NW 1017,4 20 60 0,0
04.07.2020 12:00:00 28,4 13,9 7 4 16 9 S 1018,1 20 60 0,0
04.07.2020 11:00:00 26,2 14,3 9 5 18 10 SSW 1018,6 20 60 0,0
04.07.2020 10:00:00 24,2 15,7 10 5 22 12 SSW 1019,2 16 60 0,0
04.07.2020 09:00:00 22,5 16,7 11 6 19 10 SSW 1019,3 15 60 0,0
04.07.2020 08:00:00 20,1 17,1 9 5 14 7 SSE 1019,7 18 59 -
04.07.2020 07:00:00 18,3 16,6 8 5 14 8 SSE 1020,1 15 0 0,0
04.07.2020 06:00:00 18,9 16,9 11 6 19 10 SSE 1019,6 17 0 0,0
04.07.2020 05:00:00 19,3 17,1 11 6 21 12 S 1019,1 18 0 0,0
04.07.2020 04:00:00 19,8 17,2 13 7 22 12 S 1019,0 17 0 0,0
04.07.2020 03:00:00 19,8 17,2 11 6 30 16 S 1018,9 19 0 0,0
04.07.2020 02:00:00 20,4 17,1 14 7 31 17 S 1018,5 19 0 -
04.07.2020 01:00:00 22,0 17,1 16 9 31 17 SSW 1017,8 19 0 0,0
04.07.2020 00:00:00 22,8 17,3 16 9 33 18 SSW 1017,4 18 0 0,0
03.07.2020 23:00:00 23,3 3,2 10 6 23 12 ESE 1017,1 20 0 0,0
03.07.2020 22:00:00 26,1 1,3 13 7 16 8 NE 1015,3 20 16 0,0
03.07.2020 21:00:00 29,8 2,1 14 7 22 12 NE 1014,0 20 60 0,0
03.07.2020 20:00:00 31,5 1,7 13 7 29 16 N 1013,1 20 60 -
03.07.2020 19:00:00 32,0 3,0 14 7 29 16 NNE 1012,5 20 60 0,0
03.07.2020 18:00:00 32,2 3,2 12 6 28 15 NNW 1012,7 18 60 0,0
03.07.2020 17:00:00 31,8 4,5 10 6 29 16 NE 1013,1 20 60 0,0
03.07.2020 16:00:00 32,1 3,9 12 6 29 15 NNW 1013,3 20 60 0,0
03.07.2020 15:00:00 31,4 6,4 14 8 27 15 NNW 1013,7 20 60 0,0
03.07.2020 14:00:00 29,5 6,8 8 4 31 17 E 1014,6 20 60 -
03.07.2020 13:00:00 29,3 7,8 12 6 24 13 NW 1015,0 20 60 0,0
03.07.2020 12:00:00 28,2 13,0 6 4 22 12 W 1015,1 16 60 0,0
03.07.2020 11:00:00 25,8 14,2 9 5 21 12 SSW 1015,6 20 60 0,0
03.07.2020 10:00:00 23,5 14,8 10 6 23 12 SW 1016,2 20 60 0,0
03.07.2020 09:00:00 21,4 16,0 8 4 16 8 SSW 1016,6 12 60 0,0
03.07.2020 08:00:00 18,4 11,4 4 2 9 5 SSE 1017,2 9 60 -
03.07.2020 07:00:00 14,8 7,1 3 2 6 4 SSW 1017,8 12 8 0,0
03.07.2020 06:00:00 15,8 5,5 3 2 11 6 SSE 1017,3 20 0 0,0
03.07.2020 05:00:00 15,6 5,1 7 4 16 9 S 1017,2 20 0 0,0
03.07.2020 04:00:00 17,0 5,0 3 1 8 5 ESE 1016,5 20 0 0,0
03.07.2020 03:00:00 17,9 5,5 5 3 10 5 NNE 1016,1 14 0 0,0
03.07.2020 02:00:00 19,5 3,2 7 4 10 5 NNW 1015,6 20 0 -
03.07.2020 01:00:00 20,6 2,9 9 5 13 7 N 1015,4 20 0 0,0
03.07.2020 00:00:00 22,3 1,9 10 5 18 10 NNE 1014,7 20 0 0,0
02.07.2020 23:00:00 22,6 1,1 13 7 19 11 NE 1014,1 20 0 0,0
02.07.2020 22:00:00 25,3 0,6 9 5 22 12 N 1012,4 20 15 0,0
02.07.2020 21:00:00 29,6 1,1 15 8 37 20 N 1010,9 20 60 0,0
02.07.2020 20:00:00 31,6 1,9 25 14 45 24 NNW 1010,1 20 60 -
02.07.2020 19:00:00 32,8 2,7 28 15 53 29 NNW 1009,5 20 60 0,0
02.07.2020 18:00:00 33,2 3,0 26 14 49 27 N 1009,4 20 60 0,0
02.07.2020 17:00:00 33,2 3,0 21 11 49 27 N 1009,4 20 60 0,0
02.07.2020 16:00:00 33,5 2,3 26 14 54 29 N 1009,9 18 60 0,0
02.07.2020 15:00:00 33,0 1,9 27 14 48 26 N 1010,3 20 60 0,0
02.07.2020 14:00:00 32,6 1,7 29 16 49 27 NNW 1011,1 19 60 -
02.07.2020 13:00:00 31,6 5,9 23 13 42 23 NNW 1011,4 19 60 0,0
02.07.2020 12:00:00 30,2 9,2 22 12 34 18 N 1011,8 20 60 0,0
02.07.2020 11:00:00 28,8 9,0 16 9 26 14 NNW 1012,2 20 60 0,0
02.07.2020 10:00:00 26,7 8,7 16 8 26 14 NNW 1012,8 18 60 0,0
02.07.2020 09:00:00 23,2 7,3 16 9 24 13 NNW 1013,4 20 60 0,0
02.07.2020 08:00:00 19,8 5,8 1 1 6 3 ENE 1014,0 9 60 -
02.07.2020 07:00:00 16,1 5,1 3 2 8 4 E 1014,8 3,7 4 0,0
02.07.2020 06:00:00 16,5 4,8 3 2 5 3 E 1014,3 1,9 0 0,0
02.07.2020 05:00:00 17,4 4,6 2 1 4 2 E 1013,8 20 0 0,0
02.07.2020 04:00:00 19,1 5,1 2 1 10 6 SSE 1013,4 20 0 0,0
02.07.2020 03:00:00 20,9 3,9 10 5 12 6 N 1013,0 20 0 0,0
02.07.2020 02:00:00 21,7 3,8 8 4 10 6 N 1013,1 20 0 -
02.07.2020 01:00:00 23,4 3,8 8 5 19 11 NNW 1012,6 20 0 0,0
02.07.2020 00:00:00 24,7 3,4 - - - - - 1011,9 20 0 0,0
01.07.2020 23:00:00 25,7 3,0 7 4 - - NE 1011,0 20 0 0,0
01.07.2020 22:00:00 27,7 4,1 - - - - - 1010,1 20 14 0,0
01.07.2020 21:00:00 32,2 3,2 19 10 35 19 NNW 1008,3 20 60 0,0
01.07.2020 20:00:00 34,0 3,8 20 11 42 23 NNW 1007,6 20 60 -
01.07.2020 19:00:00 34,8 3,4 23 13 46 25 N 1007,1 20 60 0,0
01.07.2020 18:00:00 34,9 3,4 28 15 - - N 1007,7 20 60 0,0
01.07.2020 17:00:00 35,5 5,0 - - - - - 1007,7 20 60 0,0
01.07.2020 16:00:00 34,7 6,1 - - - - - 1008,3 20 60 0,0
01.07.2020 15:00:00 34,2 6,5 - - - - - 1008,6 16 60 0,0
01.07.2020 14:00:00 32,9 8,4 - - - - - 1009,2 20 60 -
01.07.2020 13:00:00 32,0 10,6 22 12 38 20 NNW 1009,7 13 60 0,0
01.07.2020 12:00:00 30,3 9,8 17 9 29 16 N 1010,6 16 60 0,0
01.07.2020 11:00:00 28,7 11,7 16 9 28 15 N 1010,8 20 60 0,0
01.07.2020 10:00:00 27,0 12,6 16 9 26 14 NNW 1011,4 20 60 0,0
01.07.2020 09:00:00 23,9 12,2 13 7 20 11 NNW 1012,2 17 60 0,0
01.07.2020 08:00:00 19,9 12,1 1 1 6 4 E 1012,8 14 59 -
01.07.2020 07:00:00 17,3 12,0 3 2 6 3 NNE 1013,3 16 0 0,0
01.07.2020 06:00:00 17,7 12,3 4 2 11 6 E 1012,6 12 0 0,0
01.07.2020 05:00:00 19,3 13,3 3 2 13 7 S 1011,6 13 0 0,0
01.07.2020 04:00:00 20,3 13,3 5 3 10 6 WSW 1011,1 20 0 0,0
01.07.2020 03:00:00 21,5 14,6 4 2 13 7 SSW 1010,7 19 0 0,0
01.07.2020 02:00:00 22,2 15,3 7 4 14 7 S 1010,4 20 0 -
01.07.2020 01:00:00 24,2 13,8 8 4 24 13 SSW 1010,3 20 0 0,0
01.07.2020 00:00:00 25,8 8,8 12 6 25 13 SSW 1009,4 20 0 0,0
30.06.2020 23:00:00 27,1 8,5 7 4 14 7 S 1008,8 20 0 0,0
30.06.2020 22:00:00 29,4 8,4 4 2 24 13 WSW 1007,0 3,4 0 0,0
30.06.2020 21:00:00 31,7 8,7 12 7 33 18 SSW 1005,8 20 51 0,0
30.06.2020 20:00:00 33,7 8,4 18 10 35 19 SSW 1005,2 6 60 -
30.06.2020 19:00:00 35,0 8,0 16 9 32 17 SSW 1004,9 20 60 0,0

tt = temperature
td = dewpoint
ff = wind speed
fx = gusts
dd = wind direction
ppp = reduced air pressure
vv = visibility
sd = sunshine duration
rr = precipitation

Next stations